SCP
0 0 0 0 0 0 0 0 0 0 0 0 0 -0 0 0 0 -0 0 0 0 0 -0 0 0 0 0 0 0 0 0 0 0 0 0 0 0 0 0 0 0 0 0 0
0 0 0 0 0 0 0 0 0 0 0 0 0 0 0 0 0 0 0 0 0 0 -0 0 0 0 0 0 0 0 0 0 0 0 0 0 0 0 0 0 0 0 0 0
0 0 0 0 0 0 0 0 0 0 0 0 0 0 0 0 0 0 0 0 0 0 0 -0 0 0 0 0 0 0 0 0 0 0 0 0 0 0 0 0 0 0 0 0
0 0 0 0 0 0 0 0 0 0 0 0 0 0 0 0 0 0 0 0 0 0 0 0 0 0 0 0 0 0 0 0 0 0 0 0 0 0 0 0 0 0 0 0
0 0 0 0 0 0 0 0 0 0 0 0 0 0 0 0 0 0 0 0 0 0 0 0 0 0 0 0 0 0 0 0 0 0 0 0 0 0 0 0 0 0 0 0
0 0 0 0 0 0 0 0 0 0 0 0 0 0 0 0 0 0 0 0 0 0 0 0 0 0 0 0 0 0 0 0 0 0 0 0 0 0 0 0 0 0 0 0
0 0 0 0 0 0 0 0 0 0 0 0 0 0 0 0 0 0 0 0 0 0 0 0 0 0 0 0 0 0 0 0 0 0 0 0 0 0 0 0 0 0 0 0
0 0 0 0 0 0 0 0 0 0 0 0 0 0 0 0 0 0 0 0 0 0 0 0 0 0 0 0 0 0 0 0 0 0 0 0 0 0 0 0 0 0 0 0
0 0 0 0 0 0 0 0 0 0 0 0 0 0 0 0 0 0 0 0 0 0 0 0 0 0 0 0 0 0 0 0 0 0 0 0 0 0 0 0 0 0 0 0
0 0 0 0 0 0 0 0 0 0 0 0 0 0 0 0 0 0 0 0 0 0 0 0 0 0 0 0 0 0 0 0 0 0 0 0 0 0 0 0 0 0 0 0
0 0 0 0 0 0 0 0 0 0 0 0 0 0 0 0 0 0 0 0 0 0 0 0 0 0 0 0 0 0 0 0 0 0 0 0 0 0 0 0 0 0 0 0
0 0 0 0 0 0 0 0 0 0 0 0 0 0 0 0 -0 -0 0 0 0 0 0 0 0 0 0 0 0 0 0 0 0 0 0 0 0 0 0 0 0 0 0 0
0 0 0 0 0 0 0 0 0 0 0 0 0 0 0 -0 -0 -0 -0 -0 -0 -0 0 0 0 0 0 0 0 0 0 0 0 0 0 0 0 0 0 0 0 0 0 0
0 0 0 0 0 0 0 0 0 0 0 0 0 0 0 -0 -0 0 -0 -0 -0 -0 -0 -0 0 0 0 0 0 0 0 0 0 0 0 0 0 0 0 0 0 0 0 0
0 0 0 0 0 0 0 0 0 0 0 0 0 0 0 0 0 0 0 -0 -0 -0 -0 -0 0 0 0 0 0 0 0 0 0 0 0 0 0 0 0 0 0 0 0 0
0 0 0 0 0 0 0 0 0 0 0 0 0 0 0 0 0 0 0 0 0 0 0 0 0 0 0 0 0 0 0 0 0 0 0 0 0 0 0 0 0 0 0 0
0 0 0 0 0 0 0 0 0 0 0 0 0 0 0 0 -0 -0 0 0 0 0 0 -0 -0 0 0 0 0 0 0 0 0 0 0 0 0 0 0 0 0 0 0 0
0 0 0 0 0 0 0 0 0 0 0 0 0 0 -0 -0 -0 -0 0 0 0 0 0 -0 -0 -0 0 0 0 0 0 0 0 0 0 0 0 0 0 0 0 -0 0 0
0 0 0 0 0 0 0 0 0 0 0 0 0 0 -0 -0 -0 -0 0 0 0 0 0 -0 -0 -0 0 0 0 0 0 0 0 0 0 0 0 0 0 0 0 -0 -0 0
0 0 0 0 0 0 0 0 0 0 0 0 0 0 -0 -0 -0 0 0 0 0 0 0 -0 -0 -0 0 0 0 0 0 0 0 0 0 0 0 0 0 0 0 -0 -0 0
0 0 0 0 0 0 0 0 0 0 0 0 0 0 0 -0 -0 0 0 0 0 0 0 0 0 0 0 0 0 0 0 0 0 0 0 0 0 0 0 0 0 0 0 0
0 0 0 0 0 0 0 0 0 0 0 0 0 0 0 -0 0 0 0 0 0 0 0 0 0 0 0 0 0 0 0 0 0 0 0 0 0 0 0 0 0 0 0 0
0 0 0 0 0 0 0 0 0 0 0 0 0 0 0 0 0 0 0 0 0 0 0 0 0 0 0 0 0 0 0 0 0 0 0 0 0 0 0 0 0 0 0 0
0 0 0 0 0 0 0 0 0 0 0 0 0 0 0 0 0 0 0 0 0 0 0 0 0 0 0 0 0 0 0 0 0 0 0 0 0 0 0 0 0 0 0 0
0 0 0 0 0 0 0 0 0 0 0 0 0 0 0 0 0 0 0 0 0 0 0 0 0 0 0 0 0 0 0 0 0 0 0 0 0 0 0 0 0 0 0 0
0 0 0 0 0 0 0 0 0 0 0 0 0 0 0 0 0 0 0 0 0 0 0 0 0 0 0 0 0 0 0 0 0 0 0 0 0 0 0 0 0 0 0 0
Wind_Speed
2 2 5 8 8 6 4 5 8 9 7 6 10 15 16 11 7 7 5 4 4 5 5 3 3 3 3 2 2 3 4 4 4 4 4 5 6 6 6 7 9 10 10 10
2 6 8 5 4 5 5 7 8 9 5 5 9 13 12 9 6 5 5 4 4 4 4 4 3 2 2 3 3 4 4 4 5 5 5 5 4 4 5 5 7 9 10 10
6 5 3 4 4 5 6 7 7 8 8 4 6 9 6 5 3 3 3 3 3 4 5 5 3 3 3 3 4 4 5 5 5 5 3 2 2 2 3 5 7 9 10 10
5 4 3 4 5 6 7 6 7 6 4 5 2 7 8 5 5 4 4 3 4 5 4 4 3 3 3 4 4 4 4 5 5 5 4 5 5 6 7 6 6 7 9 10
5 3 4 5 6 6 6 3 4 4 4 5 3 4 10 4 4 4 4 4 4 4 4 4 4 4 4 4 4 4 4 4 4 5 6 6 7 7 5 4 6 7 8 10
5 3 3 5 2 4 2 1 2 1 1 4 4 5 9 4 4 4 3 4 4 4 4 4 4 3 4 4 4 4 4 5 4 5 6 7 8 7 6 6 6 6 6 7
4 3 2 2 1 0 2 3 3 4 2 6 2 4 10 6 4 3 4 5 4 3 3 4 4 4 4 5 5 4 4 5 5 5 6 7 8 8 8 7 7 6 5 6
2 5 4 3 5 4 3 5 4 4 4 5 3 7 9 5 3 2 3 3 3 4 4 4 5 4 5 5 5 5 5 6 5 5 5 6 6 5 5 6 6 6 6 7
6 5 2 2 2 5 3 4 3 2 2 4 6 7 10 3 3 3 4 5 5 5 5 6 6 5 5 6 6 5 5 5 5 5 5 5 5 5 6 6 6 6 6 5
6 4 3 2 1 0 4 5 3 3 3 5 6 6 6 4 4 4 4 5 6 6 6 7 6 6 6 6 6 5 5 5 5 5 5 4 5 6 6 5 6 7 7 6
4 4 3 1 5 6 3 3 4 3 3 4 5 8 6 6 3 3 4 4 5 6 7 7 7 7 6 6 5 5 4 5 5 5 5 5 5 5 6 6 7 7 6 7
4 4 4 6 4 3 5 6 6 5 5 4 4 10 5 4 3 2 4 5 5 6 6 6 7 7 7 6 5 5 4 5 5 5 5 5 5 5 6 7 7 6 6 6
5 4 1 4 2 0 3 4 5 4 3 5 6 11 3 3 4 4 5 6 7 7 7 7 7 7 7 7 6 5 5 5 5 5 5 5 5 5 6 6 6 6 6 6
3 4 7 8 6 4 4 5 5 5 6 8 12 14 12 11 10 8 7 7 7 7 7 7 7 7 7 7 6 6 6 5 5 5 5 5 6 6 6 6 6 6 5 6
3 4 6 8 6 5 8 10 9 11 11 12 14 14 17 13 10 8 7 7 7 8 7 7 7 6 6 7 7 6 6 5 5 5 5 6 6 6 6 5 5 5 5 6
3 3 3 6 6 8 11 13 14 15 13 15 16 20 15 9 6 6 6 7 8 8 8 7 6 6 6 7 7 7 6 6 5 5 6 6 6 6 5 5 5 5 5 5
4 4 3 5 3 4 12 12 14 11 10 10 15 15 7 6 6 6 6 6 7 8 7 7 6 6 6 6 6 6 6 6 5 6 6 6 6 6 6 6 5 5 5 5
7 6 3 3 1 11 9 5 8 9 11 11 10 9 7 7 6 6 6 6 7 7 7 6 6 6 6 5 6 6 6 5 6 6 6 7 6 7 6 5 5 5 5 5
9 8 5 4 5 10 8 5 7 8 8 8 10 9 7 4 4 5 5 4 6 7 6 6 5 5 4 5 6 6 6 5 6 6 7 7 7 7 7 6 6 5 4 5
7 7 6 5 6 9 8 4 4 3 6 5 5 5 4 1 3 6 4 4 5 6 5 4 4 4 4 5 5 5 6 6 7 7 7 7 7 6 6 7 6 5 4 4
6 7 10 10 9 10 7 3 5 5 8 3 4 5 4 5 7 6 6 6 5 5 5 4 4 4 5 5 5 5 6 6 7 7 7 7 7 6 6 5 5 5 4 4
10 8 9 7 9 12 5 7 8 8 3 3 4 4 5 6 6 6 6 6 5 4 4 4 4 5 5 4 4 6 6 7 7 7 7 7 7 6 5 5 5 4 4 4
9 10 7 10 10 5 5 8 6 3 4 4 4 5 5 6 6 6 5 5 5 4 5 4 4 6 5 4 4 6 7 6 6 7 7 7 6 5 5 4 5 4 3 3
5 4 5 6 9 7 6 5 5 4 5 5 5 5 5 6 6 6 6 5 5 5 4 4 5 6 6 5 5 5 6 6 6 6 7 6 6 6 5 4 3 4 4 3
7 5 5 8 8 6 7 7 7 5 4 4 4 4 4 5 6 5 5 5 5 5 4 4 5 6 7 6 6 5 5 5 6 6 6 6 5 5 5 4 3 4 4 4
7 8 9 10 8 7 6 4 4 4 5 4 4 4 3 3 5 5 5 5 4 5 4 5 5 6 6 5 6 5 5 5 5 6 6 4 4 4 4 4 5 6 6 8
Wind_Direction
115 133 214 216 209 218 232 253 270 270 275 284 267 274 283 285 279 275 273 272 268 265 273 279 271 269 276 278 270 265 254 238 210 203 204 211 220 221 222 221 219 216 215 211
80 239 233 219 218 227 239 264 273 283 279 278 281 280 279 274 258 246 254 262 263 280 299 299 291 286 277 266 260 256 251 241 219 214 213 214 220 227 228 226 222 217 217 214
202 235 205 197 219 225 238 234 250 272 306 296 308 297 287 285 282 273 263 261 263 263 271 289 292 284 284 274 262 257 248 244 233 222 216 220 218 233 229 228 225 220 216 215
233 245 211 221 229 203 255 233 238 266 304 297 359 299 286 286 301 285 279 283 274 271 269 280 293 301 291 274 274 267 259 249 239 221 209 209 217 227 230 229 231 226 218 218
241 212 197 227 234 198 232 244 243 256 250 281 261 245 282 302 282 282 280 284 280 271 264 274 281 281 283 281 284 278 274 264 248 226 217 217 227 234 239 236 235 231 223 219
246 242 213 217 231 203 217 360 344 21 110 265 234 203 279 261 248 286 299 304 296 288 284 290 301 308 310 309 303 292 284 271 256 236 225 222 232 241 244 240 236 235 228 223
290 267 233 180 147 68 98 74 356 338 324 255 229 222 253 258 248 256 283 301 310 304 304 311 318 320 316 316 309 304 299 287 273 251 240 234 235 235 236 240 238 239 236 228
236 273 224 191 188 181 182 156 178 233 253 288 289 242 255 269 277 281 290 303 314 313 314 312 304 299 300 306 307 305 301 293 287 266 255 248 244 238 239 242 242 241 240 237
195 251 279 215 197 154 158 198 178 165 253 271 266 279 297 298 324 340 346 347 330 321 320 315 314 307 302 305 302 298 295 294 293 282 269 262 254 247 248 249 244 245 247 247
168 239 278 301 87 216 175 157 127 167 232 263 279 266 253 282 295 321 343 333 326 327 328 326 321 315 306 301 299 303 300 294 293 288 276 273 263 254 254 258 255 251 251 250
157 193 278 274 199 194 158 169 168 179 195 210 270 267 228 222 242 276 297 307 315 324 322 320 317 313 309 310 310 307 304 302 300 296 290 284 278 272 267 261 257 256 256 250
168 159 236 248 243 205 187 190 166 184 232 213 241 269 259 230 250 257 290 306 318 321 316 313 312 315 318 315 309 302 300 298 293 293 292 288 283 279 274 269 266 262 262 258
157 154 218 318 322 152 204 204 190 181 190 211 229 263 285 293 297 294 298 307 312 312 313 315 318 322 321 320 313 306 301 296 295 297 297 296 293 287 282 278 275 271 269 266
145 176 197 213 220 198 226 227 201 191 222 237 235 259 280 286 291 296 296 293 296 296 300 308 313 317 319 318 315 310 308 304 304 304 300 296 295 291 289 285 283 279 276 274
149 219 232 248 250 240 240 242 222 220 225 236 253 258 268 273 278 280 281 286 295 298 302 305 306 308 313 316 318 318 315 314 312 309 306 302 303 301 300 297 293 292 289 283
167 214 220 258 247 247 258 250 241 240 238 242 258 266 267 272 270 269 271 278 285 290 294 298 301 303 306 309 312 316 317 316 314 308 303 305 307 307 304 298 295 294 289 288
182 174 198 255 253 287 259 234 227 225 219 217 241 254 269 272 266 261 265 275 281 285 290 293 294 292 296 303 306 308 309 313 316 313 313 313 311 309 303 300 298 294 291 292
183 182 205 244 191 244 247 209 210 228 244 231 241 256 258 260 269 264 258 264 277 281 285 288 291 296 302 306 309 308 312 315 316 317 318 319 316 313 309 303 295 290 289 287
193 184 194 202 235 269 280 240 196 208 254 233 235 253 264 277 308 285 263 255 260 271 276 276 282 291 304 312 314 317 318 319 322 322 323 321 318 315 314 310 303 299 295 291
192 191 202 205 225 247 250 231 177 141 266 244 216 236 254 293 297 280 287 290 284 286 287 289 300 306 308 310 318 319 317 321 321 318 316 314 311 310 310 308 306 307 302 296
172 197 215 223 237 256 248 205 132 190 243 228 197 213 216 215 235 264 289 291 285 288 293 301 308 308 307 314 323 316 316 314 314 316 315 313 313 311 308 309 310 311 310 312
181 187 200 201 226 248 207 150 188 220 218 207 219 223 233 246 263 277 285 288 294 298 299 305 307 304 306 313 317 309 308 311 317 318 317 316 315 316 317 312 312 315 318 321
203 197 191 201 222 238 187 200 219 204 213 224 227 239 243 257 270 280 285 287 289 292 297 304 302 303 306 310 308 301 307 317 319 319 318 317 316 317 314 311 313 317 319 319
237 205 205 241 254 252 248 254 258 236 235 242 241 247 247 258 271 280 284 288 292 295 298 304 307 304 306 313 311 301 309 317 317 317 317 318 318 321 323 320 318 318 318 319
215 188 211 244 260 278 265 243 244 248 251 260 263 251 249 259 269 274 281 284 290 296 299 301 300 299 302 311 312 314 320 323 321 318 316 319 323 322 324 328 325 318 313 315
199 195 206 236 228 218 241 236 224 231 249 255 264 277 273 252 262 273 277 280 285 290 296 300 299 299 303 309 311 316 321 321 318 317 317 317 320 319 323 327 331 336 331 336